Preview of NWS' New Version of Forecast
This preview is not operational and should not be used for support decisions.

Regional Weather Roundup (RWR)

Issued by National Weather Service (NWS)

                            
000
ASUS45 KBOI 250710
RWRID 

IDAHO REGIONAL WEATHER ROUNDUP
NATIONAL WEATHER SERVICE BOISE ID
100 AM MDT TUE JUN 25 2019

NOTE: "FAIR" INDICATES FEW OR NO CLOUDS BELOW 12000 FEET
WITH NO SIGNIFICANT WEATHER AND/OR OBSTRUCTIONS TO VISIBILITY

IDZ012-014-250800-
SOUTHWEST IDAHO

  
CITY           SKY/WX    TMP DP  RH WIND       PRES   REMARKS
BOISE          PTCLDY    64  41  42 S5        29.82S                  
CALDWELL       PTCLDY    61  46  57 CALM      29.81S                  
MOUNTAIN HOME  CLEAR     60  38  44 CALM      29.82F                  
$$

IDZ016-017-250800-
SOUTHCENTRAL IDAHO

  
CITY           SKY/WX    TMP DP  RH WIND       PRES   REMARKS
BURLEY         CLOUDY    60  48  64 S5        29.88S                  
JEROME         MOCLDY    64  40  41 CALM      29.89S                  
TWIN FALLS     MOCLDY    54  44  69 SW7       29.90R                  
$$

IDZ019>023-250800-
SOUTHEAST IDAHO

  
CITY           SKY/WX    TMP DP  RH WIND       PRES   REMARKS
IDAHO FALLS    MOCLDY    55  38  52 SW8       29.93R                  
POCATELLO      MOCLDY    55  39  54 E6        29.92S                  
REXBURG        PTCLDY    56  36  47 S6        29.92R                  
$$

IDZ006-010-011-018-031-032-250800-
CENTRAL IDAHO MOUNTAINS

  
CITY           SKY/WX    TMP DP  RH WIND       PRES   REMARKS
MCCALL         PTCLDY    49  36  61 N5        29.92S                  
HAILEY         MOCLDY    50  37  62 NW8       29.97S                  
STANLEY          N/A     40  30  67 CALM      30.02S                  
SALMON         PTCLDY    50  37  61 CALM      29.92R                  
CHALLIS        PTCLDY    52  30  43 SW5       29.95R                  
$$

IDZ002-004-006-007-026-250800-
NORTHERN IDAHO

  
CITY           SKY/WX    TMP DP  RH WIND       PRES   REMARKS
LEWISTON       PTCLDY    61  36  39 CALM      29.85S                  
LOWELL           N/A     53  48  83 CALM      29.91R                  
COEUR D'ALENE  PTCLDY    51  45  79 NE7       29.89S                  
MULLAN PASS    PTCLDY    46  27  47 W3        29.97F                  
$$